DECAYED

CZ-6A DEB, 54464 (Decayed)

Orbit data source: Space-Track

CZ-6A DEB, 54464 was space debris in SSO originally from a launch on Fri, 11 Nov 2022 UTC launched from the Taiyaun Space Center, China (TSC). Debris objects in space refer to the collection of defunct objects orbiting the Earth. Examples of debris include non-operational satellites, rocket bodies, and fragments generated from explosions, collisions, or faulty payload assembly.

Not visible in the next 10 days
Identifier
54464, 2022-151GQ
Orbit
Decayed
Country
Flag of CNCN / PRC
Related business
Manufacturer
SAST
Mission
Decayed spacecraft
Bus & Motor
Unknown
Mass
Unknown
Launch date (UTC)
2022-11-11 (4 years ago)
Launch vehicle
Unknown
Launch site
Taiyaun Space Center, China (TSC)
Object type
Payload
Rocket body
Debris
Shape & HBR
Unknown shape, 1.1 m
Radar Cross Section
Medium (>0.1 m² and <1 m²)

Expand to show TLE details & history
Last TLE update: 8 months ago

TLE from 8 months ago
0 CZ-6A DEB
1 54464U 22151GQ  25343.30205985  .02905674  00000-0  20916-1 0  9995
2 54464  99.0386 108.3477 0015684 289.6730  70.2834 15.69770240 71394
Epoch: 2025-12-09T07:14Z
TLE epoch observation values (Epoch: 2025-12-09T07:14:57.971Z)
Latitude
-0.00001°
Longitude
-78.68254°
Altitude
359.108 km
Speed
7.696 km/s
True Right ascension
07h 13m 23s
True Declination
0° 00' 00"
Sunlit
Object was in full shadow at epoch
Visualization orbit readout
Latitude
Unknown
Longitude
Unknown
Altitude
Unknown
Speed
Unknown
Apparent Right ascension
Unknown
Apparent Declination
Unknown
Sunlit
N/A
Visualization observer readout
Local Sidereal Time
15:55:37
Azimuth
Unknown
Elevation
Unknown
Doppler factor
Unknown
Orbital elements
Apogee altitude
367.096 km
Perigee altitude
345.971 km
Semi-major axis
6,734.67 km
Eccentricity
0.00157
Inclination
99.0386°
RAAN
108.3477°
Arg. of periapsis
289.673°
True anomaly
70.4527°
Mean anomaly
70.2834°
Eccentric anomaly
70.36804°
Mean motion
3.92707 °/min
Orbital period
91.67 mins
BSTAR
0.020916
Loading maneuver chart data...
Computing Atmospheric mass density...
Loading historical data...
Loading historical data...
Loading historical data...
Loading historical data...
Loading historical data...
Loading historical data...
Loading historical data...

Documentation

Showing up to 5 results
|